GEFSMA_500_meanwind_066.txt.gz
Wind_Speed
34 34 35 34 33 32 32 33 33 31 31 30 29 28 27 26 25 24 22 23 23 23 21 20 20 20 19 19 20 20 19 19 18 18 18 17 17 17 16 16 15 14 13
35 36 36 35 35 35 34 34 33 32 32 32 30 28 27 26 26 25 24 24 23 23 22 22 21 21 20 19 19 20 20 20 20 20 20 20 19 19 19 18 17 17 16
37 37 37 36 36 36 35 35 34 34 33 33 31 29 28 27 27 26 26 24 24 24 23 22 22 21 21 21 20 20 20 20 21 21 21 21 21 21 21 21 20 19 19
38 38 38 38 37 37 36 36 35 35 35 34 33 32 30 29 28 27 26 25 24 24 23 23 23 22 22 21 21 20 20 20 21 21 22 22 23 23 23 24 23 23 21
38 39 39 38 37 36 36 35 34 34 35 35 35 33 31 29 28 27 27 26 25 24 24 23 23 22 21 20 20 19 19 20 20 20 20 21 22 22 22 23 25 25 24
39 39 38 36 37 37 36 35 33 33 33 34 34 33 31 30 29 28 28 27 26 25 24 24 23 21 20 19 19 18 18 18 18 19 19 19 20 21 22 23 24 26 26
39 38 38 37 37 36 35 33 32 32 31 32 33 33 32 31 30 30 29 28 27 26 25 24 23 21 20 19 17 16 16 16 16 17 17 18 19 20 21 22 23 24 26
39 39 39 37 36 35 34 33 33 32 31 32 32 33 32 31 31 31 30 30 29 27 26 25 24 23 21 19 18 16 15 15 15 15 15 15 17 18 19 21 22 23 25
39 39 39 38 37 36 36 35 34 34 33 33 33 34 33 31 32 31 31 30 30 29 28 27 26 24 22 20 18 17 16 14 14 14 13 13 14 15 16 18 21 22 24
40 40 40 39 38 38 37 36 35 35 35 34 34 34 34 32 32 31 32 32 32 31 30 29 27 26 24 22 20 18 17 16 14 13 13 12 12 13 14 15 18 21 22
43 42 41 41 41 40 39 38 37 37 36 36 36 36 35 35 34 33 34 33 33 33 32 31 30 28 27 25 22 21 20 18 16 15 13 12 12 13 13 14 15 18 20
44 43 43 42 42 42 42 41 40 40 39 38 39 38 37 36 38 37 36 35 35 35 34 33 33 31 29 27 25 24 22 20 19 17 16 14 13 13 13 14 15 16 18
45 44 44 43 42 43 43 43 43 43 43 42 42 41 40 39 39 39 39 37 37 37 36 36 35 34 32 30 28 26 24 23 21 19 18 16 15 14 14 14 15 17 18
44 44 44 43 43 43 44 44 44 45 45 46 45 45 44 42 42 42 41 40 39 38 38 38 37 36 34 32 31 29 27 25 23 21 20 18 17 16 15 15 15 16 18
45 45 45 44 43 44 45 46 47 47 47 47 48 48 47 46 46 45 44 43 42 41 39 39 39 39 37 36 34 32 31 28 26 24 22 20 19 18 17 16 16 17 18
46 47 47 47 47 47 47 48 49 50 51 51 51 51 51 50 51 49 48 47 46 44 42 41 40 39 39 38 37 36 34 31 29 27 25 23 21 20 19 18 18 18 19
49 49 50 51 51 51 51 50 51 51 52 54 55 55 54 54 54 54 52 51 49 47 45 44 43 42 41 40 40 39 37 34 32 30 27 25 24 22 21 20 20 20 20
51 52 53 53 54 54 54 54 54 54 54 55 56 57 57 57 56 56 56 55 54 52 49 47 45 43 43 42 41 41 39 38 35 32 30 28 26 24 23 22 21 21 21
51 52 53 54 55 55 56 56 55 56 56 56 57 59 60 61 60 59 58 57 57 56 54 51 49 47 45 44 43 41 41 40 38 35 32 30 28 26 24 23 22 22 22
51 52 53 54 55 55 55 55 56 57 56 57 58 59 61 62 63 62 62 60 59 59 58 56 53 49 49 47 45 43 42 41 40 37 35 32 30 27 25 24 23 23 23
50 50 51 51 51 52 53 54 55 55 56 56 57 58 60 62 63 65 64 63 62 61 61 58 57 54 52 49 48 45 44 43 41 40 37 35 32 29 27 25 25 24 23
48 48 48 48 48 49 51 52 52 52 53 54 55 56 57 59 60 64 65 66 65 63 62 62 60 58 56 52 51 48 45 45 43 42 40 37 33 30 28 27 25 25 24
46 44 44 44 44 44 45 47 47 48 48 50 52 53 54 56 57 59 62 64 66 65 65 64 62 61 58 56 54 52 47 45 45 43 41 38 35 32 30 28 26 25 24
42 41 40 39 39 39 40 41 43 44 44 45 47 49 50 50 52 53 56 58 61 63 64 66 65 63 60 57 54 52 52 49 44 43 41 39 36 34 31 30 28 26 25
38 37 36 34 32 32 32 34 37 40 40 41 42 44 45 46 47 48 50 53 55 58 61 63 64 64 61 59 57 55 52 49 45 43 42 40 38 35 33 31 29 27 26
36 34 32 29 27 25 25 27 29 32 35 36 38 39 41 43 43 44 44 46 48 50 54 57 59 61 61 59 57 55 53 50 47 44 42 40 38 36 33 31 29 28 27

GEFSMA_500_meanwind_072.txt.gz
Wind_Speed
29 29 29 29 30 29 28 26 26 26 27 26 26 27 28 27 26 27 26 26 25 24 24 23 22 21 20 19 18 17 17 16 15 15 14 14 13 13 12 12 12 11 10
31 31 31 30 30 30 29 28 27 27 27 28 28 28 29 29 29 29 28 27 26 25 25 25 25 24 23 21 20 20 19 18 18 17 16 16 15 15 14 14 13 13 12
33 33 33 32 31 30 30 30 29 29 30 29 29 30 30 29 29 29 29 29 28 27 26 26 26 25 24 22 21 20 20 20 20 19 19 18 18 17 17 16 16 15 14
35 34 33 31 31 31 31 31 31 30 30 30 30 30 30 31 30 30 30 30 30 28 27 27 27 26 26 25 23 22 22 21 21 21 21 20 20 19 18 18 17 17 17
35 34 33 32 32 32 32 32 32 31 31 30 30 30 30 30 31 31 30 31 30 29 28 27 26 26 26 25 24 23 23 22 22 22 21 21 21 21 20 20 19 19 19
37 36 35 35 35 34 33 33 32 32 32 31 31 31 31 30 30 31 31 31 31 30 28 27 26 26 26 25 24 24 23 23 22 22 22 21 21 21 21 21 20 20 20
38 38 37 37 37 36 35 34 33 33 32 33 33 32 30 29 29 30 31 31 31 29 28 28 27 27 26 25 25 25 24 24 23 23 22 22 21 21 20 21 21 21 21
39 39 39 38 38 37 36 36 34 34 34 33 33 32 32 29 28 29 31 32 31 30 30 29 28 28 27 26 25 24 24 24 24 23 23 22 21 21 20 20 21 21 21
40 39 39 39 38 37 37 37 36 35 33 33 33 32 31 30 28 28 30 31 32 32 30 30 30 29 28 26 25 24 24 24 24 23 23 22 21 20 19 19 20 20 21
40 40 40 39 38 37 37 37 37 36 35 34 34 34 33 32 31 29 30 31 32 32 31 31 31 30 29 28 27 26 25 25 24 23 22 21 20 19 18 18 18 19 19
40 40 40 39 38 38 37 37 37 36 35 35 35 34 34 33 32 31 31 32 32 32 32 32 32 32 31 29 29 28 27 26 25 24 22 21 20 19 18 17 17 17 17
39 39 39 39 38 38 38 38 38 37 36 36 36 36 35 36 34 33 33 34 34 34 33 33 34 34 33 32 32 30 29 28 26 25 24 22 21 19 18 17 15 15 15
39 39 39 38 38 38 38 38 38 38 38 37 37 37 37 37 37 36 36 36 36 36 35 34 34 36 35 34 34 33 31 30 28 27 25 24 22 20 19 17 16 15 14
39 39 39 39 39 38 38 38 38 38 39 39 39 39 39 39 39 38 38 37 37 39 38 38 37 38 37 36 36 35 34 32 31 29 28 26 24 22 20 18 17 15 14
40 40 41 41 41 41 40 40 40 40 40 40 41 41 41 41 41 41 40 41 39 40 40 40 40 40 39 39 38 38 37 35 33 32 30 28 26 24 22 20 18 16 15
41 42 43 43 43 43 43 42 42 42 42 42 42 43 44 44 44 43 44 44 44 42 41 41 42 42 41 41 41 40 39 38 36 35 33 31 29 26 24 22 20 18 16
42 43 43 44 44 45 45 45 44 44 44 44 44 44 45 46 46 46 45 47 47 46 44 43 44 44 43 43 43 43 43 41 39 37 36 34 32 29 27 24 22 20 18
43 44 44 45 45 45 46 47 47 47 46 46 47 47 47 47 48 49 49 48 49 49 48 48 46 46 44 45 45 45 45 44 42 41 39 37 35 32 29 27 25 22 20
44 44 44 44 45 46 46 47 47 48 48 48 49 50 50 50 50 50 51 51 52 52 51 50 49 48 48 47 46 46 46 46 45 43 42 40 38 35 32 30 28 25 23
43 43 44 44 44 45 46 47 47 48 50 50 50 51 52 53 53 53 53 53 54 54 53 53 51 51 50 49 48 47 47 47 46 46 44 42 40 38 35 33 30 27 25
42 42 42 42 43 44 44 45 47 48 49 50 51 51 52 54 55 55 55 55 56 56 56 55 54 54 53 51 48 47 47 47 46 46 46 45 43 41 38 35 32 29 26
41 42 42 42 42 42 43 44 45 47 48 49 49 50 52 54 55 56 57 57 58 58 58 57 56 56 56 54 50 48 48 48 47 46 47 46 45 43 41 38 35 31 29
41 41 40 40 40 41 41 42 43 44 44 45 47 49 50 52 53 55 57 58 59 59 59 59 59 58 57 56 53 50 49 49 48 47 47 47 46 44 43 40 37 34 31
39 39 38 38 37 38 39 39 39 39 39 40 43 45 47 50 51 53 55 57 58 59 60 59 60 60 59 58 56 54 52 50 49 49 48 46 45 45 44 42 39 36 33
38 38 37 36 35 35 35 34 34 33 34 36 38 41 43 46 49 50 52 54 56 57 58 59 59 61 61 60 58 57 55 53 51 48 47 46 45 44 44 43 40 37 34
37 36 35 34 33 31 30 30 29 29 30 31 33 35 38 41 44 47 49 51 52 55 56 57 58 58 60 61 60 58 56 54 51 49 47 47 46 45 43 43 42 39 36

GEFSMA_500_meanwind_078.txt.gz
Wind_Speed
25 25 26 27 27 27 28 28 27 28 27 27 27 27 26 25 25 25 25 25 24 24 25 25 24 22 22 22 21 20 19 19 18 17 17 16 16 15 14 13 12 11 10
28 27 27 28 29 28 27 28 28 29 28 29 29 29 28 27 26 26 27 28 28 26 26 27 26 25 24 24 23 22 22 21 20 20 19 18 18 17 16 15 14 13 12
28 28 30 31 30 30 30 29 29 29 29 30 30 31 30 29 29 28 29 30 30 28 27 28 28 27 26 26 25 24 24 24 22 22 21 20 19 18 18 17 16 14 14
30 30 30 31 30 31 31 30 29 30 30 30 31 31 31 30 29 29 29 30 31 30 29 30 30 28 28 29 28 27 26 26 25 24 23 22 21 20 19 19 17 16 16
31 31 32 32 32 31 31 31 31 32 31 30 30 31 32 32 31 31 30 30 31 32 32 32 31 31 31 31 30 29 28 28 27 26 25 24 23 22 21 20 19 18 18
32 32 33 33 33 33 33 33 34 33 33 32 32 32 32 33 33 32 31 31 31 31 32 33 33 33 33 32 31 30 30 29 29 28 26 26 25 24 23 22 21 20 19
34 34 35 35 35 35 35 35 35 35 34 34 34 33 32 33 33 32 31 31 31 32 33 33 33 34 34 32 32 31 31 31 31 29 28 27 26 25 25 24 23 22 21
36 36 37 37 37 37 37 36 36 36 35 35 34 33 33 34 34 33 33 32 32 33 33 34 34 34 34 33 32 32 33 33 32 31 30 28 27 26 26 25 24 24 22
38 38 37 37 37 37 37 37 37 36 36 36 35 34 33 33 34 34 34 33 32 33 33 34 35 36 36 35 33 33 34 34 34 32 30 29 28 27 26 25 24 24 23
39 39 38 38 37 37 37 37 37 37 36 36 35 35 35 35 35 35 35 35 35 34 34 36 36 37 37 36 35 35 34 35 34 33 31 30 29 27 27 26 24 23 23
37 38 37 37 36 36 36 37 37 37 36 36 36 36 36 35 35 36 36 36 35 34 34 36 37 38 38 37 37 36 35 35 35 34 32 31 30 29 28 26 25 24 23
35 35 35 35 35 35 35 35 35 36 36 36 37 37 37 37 36 36 36 35 35 35 35 36 37 39 39 38 38 38 37 36 35 34 33 32 31 29 28 26 25 24 23
34 34 34 34 34 34 34 34 35 35 36 36 37 38 38 38 38 37 37 36 37 37 37 38 38 39 39 39 40 39 38 37 36 35 34 32 31 30 28 26 25 25 23
33 33 34 34 35 35 35 36 36 37 37 37 37 37 38 39 39 39 38 38 39 40 39 39 40 41 41 41 41 40 39 38 37 36 35 33 32 31 29 27 25 24 22
34 34 35 35 35 36 36 37 37 38 39 39 39 39 39 39 40 41 41 40 40 40 41 41 42 42 43 42 41 41 40 40 39 37 36 34 33 32 30 28 26 24 22
35 35 35 36 36 37 37 38 38 39 40 40 40 41 41 41 41 42 42 42 42 42 42 43 44 44 45 44 43 43 42 41 41 39 38 36 35 33 31 29 28 25 24
35 35 35 36 36 37 38 38 39 39 39 40 41 41 41 42 42 43 43 43 44 43 43 43 44 45 46 46 46 44 44 43 42 41 40 39 37 35 33 31 29 27 25
36 36 37 37 38 38 39 39 39 39 40 41 41 42 42 42 43 44 45 45 45 46 45 45 46 46 47 48 48 46 46 46 45 44 42 41 39 37 35 33 30 28 27
38 38 38 38 38 39 39 40 40 40 40 41 42 43 44 44 44 45 45 46 47 48 49 48 48 48 48 48 49 48 48 48 47 46 45 43 41 39 37 35 33 31 29
38 38 38 38 39 39 39 40 40 41 41 42 42 43 44 45 45 46 47 47 48 49 50 51 51 50 49 49 50 49 50 50 49 48 47 46 44 42 40 37 35 33 31
39 39 39 39 39 40 40 40 40 40 40 41 42 43 43 44 45 47 48 49 49 50 51 52 53 52 51 52 51 51 52 51 51 51 50 48 46 44 43 40 38 36 33
40 40 39 40 40 40 40 40 40 39 39 40 41 42 43 44 46 47 48 50 51 51 52 54 54 55 54 54 55 54 54 54 53 52 51 50 48 47 45 43 41 38 36
40 40 40 40 40 40 40 39 39 38 38 39 40 41 42 43 45 47 49 50 52 53 54 54 56 55 56 55 56 56 55 55 54 54 54 52 50 48 47 45 43 41 38
41 40 40 40 39 39 39 38 38 37 36 37 38 39 40 42 44 46 48 50 51 53 54 56 57 57 57 56 56 58 57 56 56 55 55 54 52 50 48 47 45 43 40
41 40 39 38 38 37 38 37 36 34 34 34 36 37 38 40 42 44 47 49 51 53 54 55 57 59 60 58 56 57 58 58 56 56 55 54 52 51 49 48 47 45 43
40 39 38 38 37 36 36 35 34 32 31 31 32 34 36 37 39 41 43 47 50 52 54 55 57 59 60 60 58 57 57 58 57 55 55 54 53 52 50 49 48 47 45

GEFSMA_500_meanwind_084.txt.gz
Wind_Speed
21 22 23 24 24 24 23 23 23 22 21 21 21 21 21 22 22 24 24 24 25 26 25 25 26 26 26 25 24 24 23 22 21 20 19 18 18 17 16 15 14 13 12
22 22 21 22 23 23 23 24 24 24 24 23 23 23 23 24 24 25 26 26 27 27 28 28 27 28 27 27 26 26 26 25 24 22 21 20 20 19 18 17 16 15 14
21 22 23 23 24 25 25 25 25 25 26 25 25 25 25 25 26 27 27 27 28 29 30 30 30 29 30 29 30 29 29 28 27 26 24 23 22 21 20 19 18 17 16
23 23 24 24 25 26 27 27 26 26 26 27 28 27 26 26 27 27 27 28 28 29 31 31 32 32 32 32 32 32 31 30 29 28 27 26 24 23 22 21 20 19 17
24 25 26 26 26 27 28 28 28 28 28 28 29 29 28 28 29 28 28 29 30 29 31 33 33 34 34 34 34 34 34 33 31 30 30 28 27 26 24 23 22 21 20
26 27 27 28 28 29 30 30 30 30 30 30 30 31 30 30 30 30 29 30 30 31 31 32 34 35 36 36 36 36 36 35 34 32 32 31 29 28 27 25 24 23 21
27 28 29 29 30 30 31 31 32 32 32 32 33 33 33 33 32 33 32 32 32 33 32 33 34 35 36 37 37 37 37 37 36 35 34 33 32 31 29 28 26 25 24
29 30 30 31 31 31 31 32 32 33 33 33 34 34 34 35 34 34 35 34 34 34 34 33 34 34 35 37 38 38 38 38 37 37 37 35 34 33 32 30 29 27 26
31 31 31 32 32 32 32 32 32 33 33 33 34 34 34 35 36 35 35 36 35 35 35 34 35 35 35 37 38 39 39 39 38 38 38 38 36 35 34 32 31 30 28
31 31 31 31 31 32 32 32 33 33 33 33 33 34 35 35 35 35 36 36 36 36 36 36 36 36 37 37 38 39 40 40 39 39 38 39 38 38 36 34 33 32 31
30 31 31 31 31 31 31 32 32 33 33 33 33 34 34 35 35 35 36 37 37 38 38 37 37 37 37 38 39 39 41 40 40 40 39 39 39 39 38 36 34 33 32
30 30 30 30 31 31 31 31 32 32 32 33 33 34 34 34 35 36 36 37 38 39 39 39 38 38 38 38 39 39 40 41 41 41 40 40 39 39 39 37 35 34 32
29 29 30 30 31 31 31 31 32 32 32 33 33 34 34 35 35 36 36 37 39 40 40 40 40 39 39 39 39 41 41 41 42 41 40 40 39 39 39 38 37 35 34
29 29 30 30 31 31 32 32 32 32 33 33 34 34 35 35 36 36 37 37 38 40 41 41 42 41 41 41 41 41 41 42 42 42 41 40 39 39 39 39 38 36 34
29 29 30 30 31 31 31 32 32 32 33 34 34 35 35 36 37 37 38 39 39 40 41 42 43 42 42 42 41 41 41 42 43 43 42 41 40 39 39 39 38 36 35
30 30 30 31 31 32 32 33 33 34 34 35 35 36 37 37 38 39 39 40 40 41 41 42 43 43 43 42 42 42 42 43 43 44 43 42 40 40 39 39 38 36 34
31 31 32 32 32 33 33 33 34 34 35 36 36 37 37 39 39 40 40 41 42 42 42 42 43 44 44 43 43 44 44 44 44 45 44 44 43 42 41 40 39 37 35
33 33 33 33 34 34 34 34 35 35 35 35 36 37 37 39 40 41 42 43 43 44 44 44 44 45 46 46 45 44 45 45 44 45 44 44 45 43 42 41 40 39 37
35 35 35 35 35 35 35 36 36 36 36 36 36 37 38 39 40 41 42 44 45 45 46 46 46 47 47 47 46 45 46 46 46 45 45 46 46 44 42 42 41 40 38
37 37 37 37 37 37 36 36 36 36 37 37 37 38 39 40 41 42 43 44 45 46 47 47 47 48 48 48 48 46 46 47 47 47 47 47 46 45 44 43 42 41 40
39 39 39 38 38 38 37 37 37 37 37 37 38 38 39 41 42 43 45 45 46 47 47 48 48 49 49 49 49 48 47 48 48 48 49 48 48 47 46 45 44 43 42
41 40 40 39 39 39 38 38 37 36 36 36 37 38 39 41 42 43 45 45 46 46 47 48 49 50 50 50 50 49 48 48 49 49 50 50 49 48 48 47 46 45 43
41 41 40 40 40 39 38 37 37 36 36 37 37 38 39 40 40 41 43 44 45 46 47 48 49 50 50 52 50 51 50 50 49 51 52 51 51 50 49 49 48 47 45
42 41 41 40 39 38 38 37 36 36 36 36 37 37 38 38 38 39 40 42 44 45 46 48 49 50 51 52 51 51 51 51 51 51 52 52 52 52 50 51 51 49 47
43 42 41 39 38 37 37 36 35 35 35 35 35 36 36 36 36 37 38 39 41 44 46 47 49 50 52 52 52 51 51 52 53 52 53 52 52 53 52 52 53 51 49
43 42 40 39 37 36 36 35 34 34 33 33 34 34 34 35 35 35 36 37 39 41 44 46 48 50 52 52 53 53 52 52 53 53 52 51 53 55 54 54 54 53 51

GEFSMA_500_meanwind_090.txt.gz
Wind_Speed
19 20 19 18 18 18 18 18 19 20 19 19 19 20 20 20 20 20 20 20 20 20 21 23 22 22 21 22 22 21 20 19 18 17 16 15 14 13 12 12 11 10 9
19 19 19 18 19 19 18 19 20 21 20 20 20 20 21 22 22 22 22 22 22 22 22 23 24 25 24 23 24 24 23 22 21 20 19 18 17 16 15 14 13 12 11
20 19 19 20 20 20 21 21 21 21 21 21 22 22 22 22 23 24 23 23 24 24 25 25 26 27 27 26 25 25 26 25 24 23 22 20 20 19 17 16 15 14 13
20 20 20 21 21 22 22 23 23 22 23 24 24 24 24 24 25 25 25 24 25 25 26 27 27 28 29 29 28 27 27 27 27 26 25 24 22 21 20 19 18 17 15
21 22 23 22 23 23 24 24 24 24 25 25 26 26 26 26 26 26 27 27 27 26 26 28 28 29 30 31 31 30 29 29 29 29 27 26 25 24 23 21 20 19 18
23 24 25 25 25 26 26 26 26 26 27 27 27 27 27 27 27 28 29 29 28 28 28 28 28 29 30 32 33 32 32 31 31 31 30 29 28 27 26 25 23 21 20
25 26 27 27 27 27 27 27 27 27 27 28 28 28 28 28 28 28 29 30 30 30 30 30 29 29 30 32 34 34 33 33 33 33 33 32 31 30 28 27 26 24 23
26 27 27 27 27 27 27 27 27 27 27 27 27 28 28 29 30 29 30 31 31 31 31 32 31 31 31 33 34 35 35 35 35 35 34 34 32 32 31 30 29 28 26
26 26 26 27 27 27 27 27 27 27 27 28 27 28 28 29 30 30 31 31 32 32 32 33 34 33 32 32 33 35 36 36 36 36 35 35 34 34 33 32 31 30 29
25 26 26 27 27 27 27 27 27 27 27 27 27 28 29 29 30 30 32 32 32 32 33 33 34 34 34 34 34 35 36 37 37 37 37 36 36 36 35 35 33 32 31
26 26 26 26 26 26 27 27 27 27 27 28 28 28 29 29 30 31 31 32 32 32 33 34 35 34 35 34 34 35 36 37 38 38 38 38 37 37 37 37 35 34 33
26 26 26 26 26 27 27 27 27 28 28 29 29 29 29 30 30 31 32 33 33 33 34 34 35 36 35 35 36 36 37 37 37 38 39 39 38 38 38 38 37 36 35
27 26 26 26 27 27 28 28 28 29 30 30 31 31 30 31 31 31 32 33 34 34 35 35 35 36 37 38 38 37 38 38 38 39 39 40 40 39 39 39 38 37 36
27 27 28 28 29 29 30 30 30 31 31 32 32 32 32 32 32 32 32 33 33 34 35 35 36 37 38 38 38 38 38 37 38 39 40 40 41 41 40 40 38 38 38
28 29 30 30 31 31 32 32 32 33 33 33 33 34 34 34 34 34 34 34 34 33 34 35 36 37 38 38 39 40 39 39 39 39 40 41 41 41 41 41 40 39 39
30 31 31 31 32 33 33 34 34 34 34 34 34 35 35 35 36 36 35 35 35 35 34 36 36 37 37 38 39 40 40 40 41 40 40 41 41 41 42 42 42 41 40
31 32 32 33 34 34 35 35 35 35 35 35 36 36 36 36 36 36 37 37 37 37 36 36 37 37 37 38 39 40 41 41 42 42 42 41 41 42 42 42 42 41 40
33 34 34 35 36 36 36 36 36 36 37 37 37 37 37 37 37 37 37 37 38 38 38 38 38 38 38 38 38 40 40 41 42 43 43 43 42 42 42 41 42 42 40
35 36 36 37 37 38 38 38 38 38 38 38 38 38 38 38 38 38 38 38 38 38 38 39 39 39 39 39 39 39 40 40 41 43 43 43 43 43 43 42 42 42 41
37 38 39 39 39 39 39 39 39 39 39 39 38 38 38 37 37 38 38 39 39 38 39 39 39 40 39 39 40 41 41 40 41 41 42 43 43 44 43 43 43 43 43
39 40 40 40 41 41 40 39 39 39 39 38 38 38 38 38 37 38 38 38 38 39 39 40 40 39 40 40 41 42 42 42 41 40 41 42 42 43 44 43 43 43 43
41 41 42 42 42 42 41 40 39 38 37 37 36 37 37 37 37 37 38 38 39 39 40 40 41 40 40 41 41 43 43 43 43 42 42 42 42 43 44 44 43 43 43
42 43 44 43 42 42 41 40 39 38 36 36 36 35 35 36 36 36 37 38 39 40 40 41 41 41 41 41 42 43 44 44 43 43 43 42 42 42 43 45 44 44 44
44 45 44 43 42 42 41 40 39 37 36 36 35 35 34 35 35 36 36 37 38 39 40 41 42 42 43 42 42 43 44 44 44 44 44 43 42 42 43 43 44 45 45
46 46 45 44 43 41 41 40 39 37 36 35 34 34 34 34 36 36 36 36 37 38 39 40 40 41 42 43 43 43 44 45 45 45 45 44 44 43 43 43 44 46 46
47 46 46 44 42 41 41 40 39 38 36 34 34 34 34 34 35 35 36 36 36 37 39 39 39 40 41 42 43 43 44 45 45 45 46 46 45 45 44 44 44 46 46

GEFSMA_500_meanwind_096.txt.gz
Wind_Speed
12 12 12 12 11 12 13 14 15 15 16 16 17 18 19 18 18 18 18 17 18 19 19 18 19 19 19 18 17 17 16 15 15 14 14 13 12 11 11 10 10 9 8
10 10 11 11 11 12 13 14 15 16 16 16 17 18 19 19 19 19 19 18 18 19 20 19 20 20 21 21 20 19 19 18 17 17 16 15 14 13 13 12 12 11 10
10 11 12 12 12 13 14 15 16 17 17 18 18 18 20 20 20 20 20 19 20 20 20 21 22 22 23 23 22 22 21 20 20 20 19 18 17 16 15 15 14 13 12
11 12 13 14 14 15 15 16 17 18 19 19 19 19 20 21 22 22 22 21 22 21 21 21 22 24 25 25 25 25 25 24 23 23 22 21 20 19 18 17 16 15 15
12 13 14 14 16 16 17 17 18 18 19 20 20 21 21 22 23 23 23 23 23 23 24 24 24 24 26 26 27 27 27 27 26 25 25 24 23 22 21 20 19 18 17
14 15 15 16 17 17 18 18 18 18 19 19 20 21 22 23 23 24 24 25 25 25 26 26 26 25 26 27 28 29 29 29 29 28 27 27 26 25 23 22 21 21 20
14 15 16 17 17 18 18 18 18 19 19 19 20 21 22 23 24 24 25 25 26 27 27 28 28 28 28 28 29 29 30 31 32 31 31 30 29 28 27 25 24 23 23
14 15 15 16 17 17 18 18 19 19 20 20 20 21 22 23 24 24 25 26 27 27 28 29 29 30 30 30 31 31 31 32 33 34 34 33 32 31 30 29 27 26 26
14 15 16 17 17 18 18 18 18 19 20 21 21 21 21 22 24 24 25 26 27 28 28 30 30 31 32 32 33 33 32 32 33 35 36 35 34 33 32 32 30 29 28
15 16 16 17 18 18 18 18 18 19 19 20 21 21 22 22 24 25 25 26 27 28 29 30 31 31 32 33 33 34 35 34 35 36 36 36 36 35 34 34 33 32 31
15 16 17 17 18 18 19 19 20 20 20 21 22 22 23 24 24 25 26 27 27 28 29 30 31 32 33 34 35 35 36 36 37 37 38 38 38 38 37 36 35 34 33
16 17 17 18 19 20 20 21 21 22 22 22 23 23 24 25 25 26 27 28 29 29 30 30 31 33 34 35 35 36 37 37 38 38 39 38 39 39 39 38 37 36 36
17 18 19 20 21 22 22 23 23 23 24 24 25 25 26 27 28 28 28 29 30 31 31 32 33 34 34 35 36 37 38 39 40 40 39 39 39 40 40 40 39 38 38
18 20 20 21 22 23 23 24 24 25 26 26 27 28 28 29 30 30 30 31 31 33 33 34 34 35 35 35 37 38 39 39 40 41 41 41 41 41 41 41 40 39 39
20 22 23 23 24 25 25 26 26 27 28 29 29 29 30 31 31 32 32 32 33 33 34 36 36 36 36 36 37 38 39 40 41 42 42 43 43 43 42 42 42 41 41
22 24 24 26 27 27 28 29 30 30 30 31 31 31 32 33 33 34 34 34 34 34 35 37 38 38 38 38 38 38 39 41 42 43 43 44 44 44 43 43 43 42 42
24 25 26 28 29 29 30 31 32 33 33 33 33 33 33 34 34 35 35 36 36 36 36 37 39 39 39 39 39 39 40 41 42 43 44 45 46 45 44 44 44 43 43
26 27 29 30 31 32 33 34 34 35 35 35 35 34 34 35 35 35 35 35 36 36 36 36 38 39 40 40 40 40 40 41 42 43 44 45 46 46 45 45 45 44 44
28 30 31 32 33 34 35 36 36 36 36 35 35 35 35 35 35 35 35 35 36 36 36 37 37 39 40 41 41 41 41 42 43 43 44 45 45 46 46 46 45 44 44
31 32 33 34 35 36 37 38 38 38 37 37 36 36 36 35 35 35 35 35 35 35 36 37 37 39 39 41 42 42 43 43 43 43 44 45 46 46 47 47 46 45 44
33 34 35 36 37 38 39 39 39 39 38 38 37 37 36 35 35 35 35 35 35 35 35 36 37 38 39 40 41 42 43 44 44 44 44 45 46 46 47 47 47 47 46
35 36 37 38 38 40 40 40 40 39 39 38 38 37 36 36 35 35 35 34 35 35 35 36 36 37 38 39 40 41 42 43 44 45 46 45 46 46 46 47 47 47 47
37 38 38 39 40 41 42 41 41 40 39 38 38 37 37 36 35 34 34 34 34 35 35 36 36 37 38 39 40 40 41 42 43 45 46 46 46 46 46 46 46 47 47
38 39 39 40 41 42 42 42 41 40 39 39 38 37 37 36 36 34 33 33 33 34 35 35 35 36 38 39 40 41 41 41 42 44 45 45 46 47 47 47 46 46 47
40 41 41 41 42 42 43 42 42 40 39 39 38 38 37 36 35 34 32 32 33 34 35 35 35 36 37 39 40 41 42 42 42 44 45 45 45 46 47 46 46 46 46
42 42 42 42 43 43 43 42 42 41 39 39 38 38 37 36 34 34 33 33 33 34 35 35 36 36 38 39 40 41 42 42 43 44 45 45 46 47 47 47 46 46 46

GEFSMA_500_meanwind_102.txt.gz
Wind_Speed
10 11 12 12 13 12 12 12 12 13 13 13 13 12 12 12 13 14 15 15 16 16 17 18 19 20 20 20 20 19 18 17 16 16 15 15 14 13 13 12 10 9 8
10 11 11 12 13 12 13 13 14 14 14 14 14 14 14 14 14 15 16 16 17 17 17 17 18 21 21 22 22 22 21 20 19 18 18 17 16 15 15 14 13 12 10
10 10 11 12 13 13 13 14 14 15 16 16 16 16 16 17 17 17 17 17 18 18 18 18 19 20 22 22 23 24 23 22 21 21 20 19 19 18 17 16 15 14 13
10 11 12 13 13 14 14 14 15 15 16 16 17 17 17 17 18 18 19 19 19 20 20 20 20 21 23 24 24 25 25 25 24 23 23 22 21 20 19 18 17 16 15
11 11 12 13 14 14 15 15 16 16 16 16 17 17 18 18 18 18 19 20 21 22 22 22 22 22 23 24 25 26 27 27 27 26 25 24 23 23 22 21 20 19 18
10 11 12 13 14 14 15 15 15 16 16 17 17 18 19 19 19 18 19 20 21 22 22 23 24 24 24 25 26 27 28 28 29 28 28 27 26 25 25 24 23 21 20
10 11 12 13 13 14 14 15 15 16 16 17 17 18 19 19 19 19 19 20 21 22 23 24 25 26 26 26 27 27 28 30 31 31 30 30 29 28 27 27 26 24 23
9 10 11 11 12 13 14 15 15 16 16 17 17 18 19 19 19 20 20 21 22 23 24 24 26 27 28 29 29 29 30 30 31 32 32 32 31 31 30 29 29 28 26
8 9 10 11 12 13 14 15 15 16 16 17 18 18 19 20 21 21 21 21 22 23 24 25 26 27 28 29 30 31 31 32 32 33 34 34 34 34 33 32 32 31 30
8 9 10 11 12 13 14 14 15 16 16 17 18 19 20 21 22 22 23 23 23 24 25 26 27 27 28 30 31 32 33 33 34 33 34 35 35 35 36 36 35 34 33
7 9 10 11 12 13 14 15 15 16 17 18 19 19 20 21 22 23 24 25 25 26 26 27 28 29 29 30 32 33 34 35 35 35 35 36 37 37 37 37 37 37 36
8 10 11 12 13 14 15 16 17 18 18 19 20 21 21 22 23 24 25 26 27 27 28 29 30 31 31 32 32 33 35 36 37 37 37 38 38 38 38 38 38 39 38
8 10 12 13 14 15 16 18 19 20 20 20 21 22 23 23 24 25 26 27 28 29 29 30 31 32 33 34 35 35 36 37 38 39 39 39 39 39 40 40 40 40 40
9 11 13 14 15 17 18 20 21 22 22 23 24 24 25 25 25 25 26 27 28 30 31 32 33 33 34 35 36 37 38 38 39 40 40 41 41 41 41 41 42 42 42
11 12 14 16 18 19 21 22 23 23 24 25 26 26 27 27 27 27 27 28 29 30 32 34 34 35 36 37 37 38 39 40 41 41 41 41 42 43 43 43 43 43 43
13 14 16 18 20 21 22 24 24 25 26 27 28 28 29 29 29 29 29 29 30 30 32 34 36 36 37 38 39 40 40 41 42 42 43 43 43 44 44 45 45 44 44
15 17 18 20 22 23 25 26 26 26 27 28 29 30 31 31 31 31 31 31 31 31 32 34 36 38 38 39 39 41 42 42 43 44 44 45 45 45 46 46 46 46 46
17 19 21 22 23 25 26 27 28 28 29 30 31 32 32 32 33 33 33 33 32 32 32 32 35 37 39 40 40 40 42 43 44 45 45 45 46 46 47 48 48 48 48
20 21 23 24 26 27 28 29 30 30 31 32 33 33 34 34 34 34 33 33 33 33 32 32 34 36 38 40 40 41 41 43 44 46 46 46 46 47 48 48 49 49 49
23 24 26 27 28 29 30 31 32 32 33 33 34 35 35 35 35 34 34 34 34 34 34 34 34 35 36 38 40 41 41 43 44 45 46 47 47 47 48 49 49 50 51
26 27 28 29 30 31 32 34 34 34 35 35 36 36 36 37 36 35 35 34 35 35 35 35 34 34 35 37 39 40 40 42 43 44 46 47 48 48 48 49 50 50 51
28 29 30 31 32 33 34 35 35 36 36 36 37 38 38 38 37 36 36 36 36 36 36 35 35 35 35 37 38 39 39 40 41 44 45 46 48 48 48 49 50 50 50
30 31 33 34 34 35 36 36 37 37 37 38 39 38 38 38 38 37 37 37 37 37 36 36 35 35 36 37 37 38 38 39 39 41 43 44 47 48 49 49 50 50 51
33 34 35 36 36 37 37 38 38 39 39 40 40 40 39 39 39 38 38 37 37 37 37 36 36 36 36 37 37 37 38 39 39 40 42 43 45 47 48 50 50 50 51
36 37 37 38 38 39 39 39 40 40 41 41 42 41 40 39 40 39 38 38 38 38 37 37 36 36 36 37 37 37 38 38 39 40 42 42 44 46 47 48 49 51 51
38 39 40 40 41 41 41 41 42 42 43 43 43 43 42 41 41 40 40 39 38 38 38 37 36 36 37 37 37 37 38 38 39 39 41 42 43 45 45 46 48 50 51

GEFSMA_500_meanwind_108.txt.gz
Wind_Speed
7 7 7 7 7 8 8 7 7 7 7 7 8 8 8 9 10 11 12 13 14 15 16 17 17 18 18 19 20 20 19 19 18 17 17 16 15 14 13 12 11 10 9
6 7 7 7 7 8 8 8 8 8 7 8 9 9 10 10 11 12 13 14 15 16 17 18 18 19 19 20 21 22 22 21 20 20 19 19 18 17 16 15 14 12 11
7 7 7 7 8 8 9 8 9 8 8 9 10 10 11 11 11 12 14 15 16 17 18 18 19 20 20 20 21 24 24 24 23 22 21 21 20 19 18 17 16 15 14
6 7 7 8 8 8 8 8 9 9 9 10 10 10 11 11 12 13 14 15 16 17 18 20 20 20 20 20 22 23 26 26 26 25 24 24 23 22 21 20 19 18 17
6 6 7 7 8 8 8 8 8 9 9 9 10 10 11 12 12 13 14 15 16 16 18 19 21 21 21 21 22 24 24 26 28 28 27 26 25 24 24 23 22 21 20
6 6 6 7 7 7 7 8 8 8 9 9 10 11 11 12 13 13 14 15 16 17 17 18 20 21 22 23 23 24 25 27 28 29 30 29 28 27 26 25 25 24 23
5 5 5 6 6 6 7 7 8 8 9 9 10 11 11 12 13 14 14 15 16 17 18 18 19 21 21 23 24 25 26 27 28 29 30 31 31 31 29 28 27 27 26
4 4 5 5 5 6 6 7 8 8 9 10 10 11 11 12 13 14 14 15 17 18 19 20 21 21 22 23 24 26 26 27 29 29 30 31 32 32 32 32 30 29 28
4 4 4 4 5 5 6 7 8 9 9 10 11 12 12 13 13 14 15 16 17 19 20 21 22 23 23 24 25 26 26 27 29 29 30 31 33 34 34 34 33 32 31
4 3 3 3 4 5 6 7 8 9 10 11 12 12 13 14 15 16 16 17 19 20 21 22 23 24 25 25 26 26 27 28 29 30 31 31 32 33 35 35 35 35 34
4 3 3 3 4 5 6 7 8 10 11 12 12 13 14 15 16 17 18 18 19 20 21 22 24 25 26 27 27 28 28 28 29 30 31 32 33 33 35 36 37 37 37
4 3 3 4 5 6 7 8 10 11 12 12 13 15 15 16 17 18 18 19 20 20 21 22 24 26 27 28 29 29 30 30 31 32 33 34 34 34 35 36 37 39 39
5 4 5 5 6 8 9 10 11 12 13 14 15 16 17 18 18 19 19 20 21 21 22 22 23 25 27 29 30 31 32 33 33 34 35 35 36 36 37 37 38 38 40
6 6 7 8 8 10 11 11 13 14 15 16 16 17 18 19 19 20 21 22 23 24 24 24 24 25 27 30 31 33 34 34 35 36 37 37 38 38 39 39 39 39 39
9 9 10 11 11 12 13 14 15 15 16 17 18 19 19 20 21 21 22 23 24 25 26 26 26 26 26 28 31 33 35 36 37 38 38 39 40 40 40 41 41 41 41
12 12 13 14 14 15 16 17 17 17 18 19 20 21 22 22 22 23 24 25 25 26 27 28 28 27 27 28 29 31 33 36 38 39 40 41 42 42 42 42 43 43 43
15 16 16 17 17 18 18 19 19 20 21 22 22 23 23 24 24 25 26 26 26 26 27 28 29 29 29 29 29 30 32 34 36 39 41 42 43 44 44 44 44 45 45
18 18 19 19 20 20 21 21 22 23 23 24 24 25 25 25 26 27 27 28 28 28 28 28 30 30 31 31 31 31 32 33 35 37 39 42 43 45 46 46 46 47 47
21 21 22 22 22 23 23 23 24 24 25 26 26 27 27 27 28 28 29 29 29 29 29 30 30 31 32 32 32 32 33 33 35 36 38 40 42 44 46 47 48 48 48
24 24 24 25 25 25 26 26 26 27 27 28 28 29 29 29 30 30 31 31 31 31 31 31 31 32 33 33 33 33 33 34 34 36 37 38 40 43 45 47 48 49 49
26 27 27 27 27 28 28 28 29 29 29 30 30 31 31 31 32 32 33 33 33 33 33 33 33 33 34 34 34 34 34 35 35 36 37 37 39 41 44 46 48 49 50
28 29 29 29 29 30 30 31 31 31 31 32 32 32 33 33 33 34 34 35 35 35 35 35 34 35 34 35 35 35 35 35 36 37 37 38 39 40 41 44 46 48 50
31 30 31 31 31 31 32 33 34 34 33 33 34 35 35 36 36 36 36 37 38 38 37 37 36 36 36 36 36 36 36 36 37 38 38 38 39 40 41 42 44 46 49
33 33 34 34 33 33 34 35 35 36 36 36 36 36 37 38 39 39 39 39 39 40 39 39 38 38 38 38 38 38 38 38 38 38 39 39 39 39 40 42 42 43 46
34 35 35 34 34 35 36 37 37 38 38 38 38 38 39 40 40 41 41 41 41 41 41 40 40 40 40 40 40 39 39 39 38 38 39 39 39 40 40 41 41 42 43
35 35 36 36 37 37 38 39 40 40 40 41 41 41 42 42 43 44 44 43 43 43 43 42 42 42 42 41 41 40 40 39 39 39 39 39 39 40 40 41 41 42 43